When you browse on this site, cookies collect data to enhance your experience and personalize the content and advertising you see.
Visit our Privacy Policy to learn more. By continuing to use the site, you agree to this use of cookies and data.

Hourly Weather Khashuri

Today, 6 July, Monday

Time Temperature Precipitation Wind Pressure Humidity
00:00 +12°C° 0 mm 2 mps 612 mmHg 75%
01:00 +12°C° 0 mm 2 mps 612 mmHg 73%
02:00 +10°C° 0 mm 2 mps 612 mmHg 72%
03:00 +11°C° 0 mm 1 mps 612 mmHg 68%
04:00 +12°C° 0 mm 1 mps 612 mmHg 69%
05:00 +12°C° 0 mm 1 mps 612 mmHg 71%
06:00 +13°C° 0 mm 2 mps 612 mmHg 72%
07:00 +15°C° 0 mm 2 mps 613 mmHg 65%
08:00 +17°C° 0 mm 2 mps 614 mmHg 57%
09:00 +19°C° 0 mm 2 mps 615 mmHg 49%
10:00 +20°C° 0 mm 2 mps 615 mmHg 47%
11:00 +21°C° 0 mm 2 mps 615 mmHg 45%
12:00 +22°C° 0 mm 3 mps 615 mmHg 43%
13:00 +24°C° 0 mm 3 mps 615 mmHg 44%
14:00 +24°C° 0 mm 3 mps 615 mmHg 45%
15:00 +24°C° 0 mm 2 mps 615 mmHg 46%
16:00 +23°C° 0 mm 2 mps 614 mmHg 51%
17:00 +21°C° 0 mm 2 mps 614 mmHg 57%
18:00 +21°C° 0 mm 2 mps 613 mmHg 62%
19:00 +18°C° 0 mm 2 mps 613 mmHg 63%
20:00 +16°C° 0 mm 2 mps 612 mmHg 63%
21:00 +14°C° 0 mm 2 mps 612 mmHg 64%
22:00 +14°C° 0 mm 2 mps 612 mmHg 62%
23:00 +14°C° 0 mm 2 mps 612 mmHg 61%

Tomorrow, 7 July, Tuesday

Time Temperature Precipitation Wind Pressure Humidity
00:00 +13°C° 0 mm 2 mps 611 mmHg 60%
01:00 +13°C° 0 mm 2 mps 611 mmHg 60%
02:00 +13°C° 0 mm 2 mps 611 mmHg 60%
03:00 +12°C° 0 mm 2 mps 611 mmHg 60%
04:00 +13°C° 0 mm 2 mps 611 mmHg 63%
05:00 +13°C° 0 mm 2 mps 611 mmHg 66%
06:00 +14°C° 0 mm 2 mps 611 mmHg 69%
07:00 +16°C° 0 mm 2 mps 612 mmHg 64%
08:00 +19°C° 0 mm 2 mps 613 mmHg 58%
09:00 +21°C° 0 mm 2 mps 614 mmHg 53%
10:00 +23°C° 0 mm 2 mps 614 mmHg 51%
11:00 +25°C° 0 mm 2 mps 615 mmHg 49%
12:00 +26°C° 0 mm 2 mps 615 mmHg 46%
13:00 +26°C° 0.3 mm 2 mps 615 mmHg 47%
14:00 +26°C° 0.3 mm 2 mps 615 mmHg 48%
15:00 +26°C° 0.3 mm 1 mps 614 mmHg 48%
16:00 +25°C° 0.2 mm 1 mps 614 mmHg 55%
17:00 +24°C° 0.2 mm 1 mps 614 mmHg 61%
18:00 +23°C° 0.2 mm 1 mps 613 mmHg 68%
19:00 +21°C° 0.8 mm 1 mps 613 mmHg 74%
20:00 +19°C° 0.8 mm 1 mps 613 mmHg 81%
21:00 +16°C° 0.8 mm 1 mps 612 mmHg 88%
22:00 +15°C° 0.2 mm 1 mps 612 mmHg 87%
23:00 +15°C° 0.2 mm 1 mps 612 mmHg 86%

Day after tomorrow, 8 July, Wednesday

Time Temperature Precipitation Wind Pressure Humidity
00:00 +15°C° 0.2 mm 2 mps 612 mmHg 85%
01:00 +15°C° 0 mm 1 mps 612 mmHg 84%
02:00 +14°C° 0 mm 1 mps 612 mmHg 82%
03:00 +14°C° 0 mm 1 mps 612 mmHg 81%
04:00 +15°C° 0.1 mm 1 mps 612 mmHg 81%
05:00 +15°C° 0.1 mm 1 mps 612 mmHg 80%
06:00 +15°C° 0.1 mm 1 mps 612 mmHg 80%
07:00 +18°C° 0.1 mm 1 mps 613 mmHg 73%
08:00 +20°C° 0.1 mm 1 mps 614 mmHg 67%
09:00 +22°C° 0.1 mm 1 mps 615 mmHg 61%
10:00 +23°C° 0.9 mm 1 mps 615 mmHg 60%
11:00 +23°C° 0.9 mm 1 mps 615 mmHg 60%
12:00 +24°C° 0.9 mm 2 mps 615 mmHg 59%
13:00 +23°C° 0.8 mm 2 mps 615 mmHg 63%
14:00 +21°C° 0.8 mm 2 mps 614 mmHg 68%
15:00 +20°C° 0.8 mm 3 mps 614 mmHg 72%
16:00 +19°C° 1.7 mm 2 mps 613 mmHg 78%
17:00 +18°C° 1.7 mm 2 mps 613 mmHg 84%
18:00 +18°C° 1.7 mm 1 mps 613 mmHg 89%
19:00 +16°C° 0.9 mm 1 mps 613 mmHg 92%
20:00 +15°C° 0.9 mm 1 mps 613 mmHg 94%
21:00 +15°C° 0.9 mm 1 mps 614 mmHg 97%
22:00 +14°C° 1.6 mm 1 mps 614 mmHg 97%
23:00 +14°C° 1.6 mm 1 mps 614 mmHg 98%

9 July, Thursday

Time Temperature Precipitation Wind Pressure Humidity
00:00 +14°C° 1.6 mm 1 mps 614 mmHg 98%
01:00 +14°C° 1.2 mm 1 mps 614 mmHg 98%
02:00 +14°C° 1.2 mm 1 mps 614 mmHg 99%
03:00 +13°C° 1.2 mm 1 mps 614 mmHg 99%
04:00 +13°C° 0.1 mm 1 mps 614 mmHg 98%
05:00 +13°C° 0.1 mm 1 mps 614 mmHg 98%
06:00 +13°C° 0.1 mm 1 mps 614 mmHg 97%
07:00 +14°C° 0.1 mm 1 mps 615 mmHg 94%
08:00 +15°C° 0.1 mm 1 mps 615 mmHg 91%
09:00 +16°C° 0.1 mm 1 mps 615 mmHg 88%
10:00 +17°C° 0.8 mm 2 mps 616 mmHg 83%
11:00 +18°C° 0.8 mm 2 mps 616 mmHg 79%
12:00 +19°C° 0.8 mm 2 mps 616 mmHg 74%
13:00 +19°C° 0.5 mm 2 mps 616 mmHg 73%
14:00 +20°C° 0.5 mm 2 mps 616 mmHg 71%
15:00 +20°C° 0.5 mm 3 mps 616 mmHg 70%
16:00 +19°C° 0.3 mm 2 mps 616 mmHg 74%
17:00 +18°C° 0.3 mm 2 mps 616 mmHg 79%
18:00 +18°C° 0.3 mm 2 mps 616 mmHg 83%
19:00 +16°C° 0.1 mm 2 mps 616 mmHg 87%
20:00 +15°C° 0.1 mm 1 mps 616 mmHg 91%
21:00 +13°C° 0.1 mm 1 mps 615 mmHg 96%
22:00 +13°C° 0 mm 1 mps 615 mmHg 96%
23:00 +12°C° 0 mm 0 mps 615 mmHg 96%

10 July, Friday

Time Temperature Precipitation Wind Pressure Humidity
00:00 +12°C° 0 mm 0 mps 616 mmHg 96%
01:00 +12°C° 0 mm 0 mps 615 mmHg 96%
02:00 +12°C° 0 mm 0 mps 615 mmHg 96%
03:00 +12°C° 0 mm 0 mps 615 mmHg 96%
04:00 +12°C° 0 mm 0 mps 615 mmHg 96%
05:00 +12°C° 0 mm 0 mps 616 mmHg 95%
06:00 +13°C° 0 mm 0 mps 616 mmHg 95%
07:00 +13°C° 0 mm 0 mps 616 mmHg 92%
08:00 +15°C° 0 mm 1 mps 616 mmHg 89%
09:00 +16°C° 0 mm 1 mps 617 mmHg 86%
10:00 +18°C° 0.1 mm 1 mps 617 mmHg 82%
11:00 +19°C° 0.1 mm 1 mps 617 mmHg 78%
12:00 +20°C° 0.1 mm 2 mps 617 mmHg 74%
13:00 +20°C° 0.3 mm 2 mps 617 mmHg 76%
14:00 +20°C° 0.3 mm 2 mps 617 mmHg 77%
15:00 +20°C° 0.3 mm 2 mps 617 mmHg 78%
16:00 +19°C° 0.5 mm 2 mps 617 mmHg 82%
17:00 +18°C° 0.5 mm 2 mps 617 mmHg 87%
18:00 +18°C° 0.5 mm 2 mps 616 mmHg 91%
19:00 +17°C° 0.9 mm 2 mps 616 mmHg 93%
20:00 +15°C° 0.9 mm 1 mps 616 mmHg 95%
21:00 +14°C° 0.9 mm 1 mps 616 mmHg 97%
22:00 +14°C° 0.3 mm 1 mps 616 mmHg 97%
23:00 +14°C° 0.3 mm 1 mps 616 mmHg 97%

11 July, Saturday

Time Temperature Precipitation Wind Pressure Humidity
00:00 +14°C° 0.3 mm 1 mps 616 mmHg 98%
01:00 +14°C° 0.1 mm 1 mps 616 mmHg 98%
02:00 +14°C° 0.1 mm 1 mps 616 mmHg 98%
03:00 +14°C° 0.1 mm 1 mps 616 mmHg 98%
04:00 +14°C° 0.2 mm 1 mps 616 mmHg 98%
05:00 +14°C° 0.2 mm 1 mps 616 mmHg 98%
06:00 +14°C° 0.2 mm 1 mps 616 mmHg 97%
07:00 +15°C° 0.1 mm 1 mps 616 mmHg 94%
08:00 +16°C° 0.1 mm 1 mps 616 mmHg 90%
09:00 +18°C° 0.1 mm 1 mps 616 mmHg 87%
10:00 +19°C° 0.5 mm 1 mps 617 mmHg 81%
11:00 +19°C° 0.5 mm 2 mps 617 mmHg 76%
12:00 +20°C° 0.5 mm 2 mps 617 mmHg 70%
13:00 +20°C° 0.3 mm 2 mps 617 mmHg 68%
14:00 +21°C° 0.3 mm 3 mps 617 mmHg 65%
15:00 +21°C° 0.3 mm 3 mps 617 mmHg 63%
16:00 +20°C° 0.1 mm 3 mps 617 mmHg 67%
17:00 +19°C° 0.1 mm 2 mps 616 mmHg 72%
18:00 +18°C° 0.1 mm 2 mps 616 mmHg 76%
19:00 +17°C° 0 mm 2 mps 615 mmHg 81%
20:00 +15°C° 0 mm 2 mps 615 mmHg 87%
21:00 +13°C° 0 mm 1 mps 614 mmHg 92%
22:00 +12°C° 0 mm 1 mps 614 mmHg 92%
23:00 +12°C° 0 mm 1 mps 614 mmHg 92%
Show more